Total_Precipitation_Accumulation
0.00 0.00 0.00 0.00 0.00 0.00 0.00 0.01 0.02 0.05 0.10 0.08 0.10 0.14 0.18 0.24 0.30 0.66 0.39 0.16 0.08 0.03 0.01 0.01 0.02 0.03 0.05 0.06 0.07 0.07 0.07 0.07 0.08 0.09 0.09 0.10 0.09 0.09 0.09 0.09 0.11 0.17 0.20 0.19 0.17 0.17 0.18 0.15 0.10
0.00 0.00 0.00 0.00 0.00 0.00 0.01 0.02 0.03 0.04 0.09 0.10 0.10 0.13 0.16 0.18 0.13 0.07 0.07 0.07 0.08 0.03 0.01 0.01 0.02 0.03 0.04 0.04 0.06 0.08 0.09 0.07 0.07 0.08 0.08 0.09 0.08 0.08 0.08 0.09 0.12 0.18 0.23 0.23 0.21 0.19 0.17 0.13 0.08
0.00 0.00 0.00 0.00 0.00 0.00 0.02 0.03 0.03 0.03 0.05 0.09 0.15 0.23 0.23 0.19 0.15 0.08 0.07 0.06 0.08 0.03 0.00 0.01 0.02 0.03 0.04 0.04 0.05 0.08 0.09 0.08 0.08 0.08 0.08 0.09 0.09 0.08 0.09 0.11 0.11 0.14 0.18 0.18 0.13 0.12 0.12 0.11 0.07
0.00 0.00 0.00 0.00 0.00 0.00 0.01 0.03 0.04 0.03 0.05 0.07 0.15 0.30 0.27 0.21 0.17 0.12 0.09 0.08 0.06 0.03 0.01 0.01 0.02 0.04 0.05 0.06 0.07 0.08 0.08 0.09 0.10 0.11 0.12 0.13 0.12 0.11 0.12 0.15 0.16 0.15 0.15 0.14 0.11 0.10 0.09 0.10 0.05
0.00 0.00 0.00 0.00 0.00 0.00 0.01 0.02 0.05 0.04 0.05 0.07 0.13 0.30 0.37 0.34 0.34 0.29 0.14 0.10 0.09 0.06 0.03 0.01 0.03 0.05 0.08 0.09 0.11 0.13 0.14 0.14 0.14 0.16 0.18 0.16 0.14 0.15 0.15 0.17 0.18 0.17 0.16 0.14 0.12 0.14 0.12 0.08 0.04
0.00 0.00 0.00 0.00 0.00 0.00 0.01 0.02 0.05 0.06 0.06 0.07 0.13 0.33 0.54 0.46 0.34 0.38 0.26 0.16 0.10 0.08 0.05 0.02 0.03 0.06 0.11 0.15 0.17 0.19 0.16 0.15 0.15 0.18 0.20 0.17 0.13 0.12 0.12 0.13 0.14 0.16 0.18 0.17 0.12 0.08 0.06 0.04 0.03
0.00 0.00 0.00 0.00 0.01 0.01 0.01 0.02 0.04 0.06 0.06 0.10 0.16 0.37 0.66 0.63 0.49 0.46 0.36 0.18 0.14 0.11 0.07 0.04 0.03 0.05 0.13 0.20 0.19 0.17 0.15 0.15 0.17 0.20 0.22 0.19 0.14 0.10 0.09 0.12 0.14 0.14 0.14 0.12 0.06 0.03 0.02 0.01 0.02
0.00 0.00 0.00 0.00 0.01 0.01 0.02 0.03 0.05 0.08 0.11 0.19 0.18 0.36 0.64 0.72 0.61 0.48 0.39 0.28 0.23 0.20 0.11 0.07 0.08 0.10 0.13 0.15 0.15 0.15 0.14 0.15 0.16 0.18 0.17 0.14 0.10 0.09 0.09 0.09 0.09 0.10 0.11 0.11 0.07 0.03 0.02 0.02 0.02
0.00 0.00 0.00 0.00 0.01 0.01 0.03 0.05 0.05 0.05 0.09 0.16 0.14 0.32 0.53 0.57 0.54 0.49 0.41 0.32 0.28 0.20 0.18 0.15 0.13 0.13 0.14 0.12 0.08 0.09 0.10 0.11 0.10 0.08 0.10 0.09 0.10 0.16 0.15 0.10 0.10 0.12 0.14 0.11 0.06 0.05 0.03 0.03 0.02
0.00 0.00 0.00 0.00 0.01 0.01 0.03 0.04 0.05 0.05 0.06 0.09 0.18 0.27 0.35 0.40 0.47 0.45 0.43 0.38 0.31 0.28 0.23 0.21 0.18 0.16 0.16 0.14 0.14 0.13 0.09 0.09 0.06 0.10 0.08 0.11 0.31 0.41 0.32 0.28 0.20 0.17 0.13 0.09 0.07 0.06 0.05 0.04 0.06
0.00 0.00 0.00 0.00 0.00 0.01 0.01 0.02 0.04 0.06 0.09 0.08 0.21 0.47 0.47 0.43 0.50 0.58 0.50 0.49 0.45 0.40 0.28 0.26 0.28 0.26 0.32 0.34 0.27 0.28 0.23 0.23 0.17 0.27 0.29 0.36 0.50 0.44 0.41 0.42 0.27 0.19 0.14 0.14 0.16 0.11 0.08 0.08 0.11
0.00 0.00 0.00 0.00 0.00 0.00 0.01 0.01 0.02 0.06 0.09 0.09 0.19 0.45 0.66 0.57 0.55 0.51 0.54 0.51 0.51 0.51 0.45 0.39 0.33 0.30 0.41 0.51 0.43 0.45 0.41 0.38 0.35 0.44 0.35 0.45 0.59 0.64 0.64 0.73 0.56 0.47 0.38 0.35 0.31 0.26 0.19 0.17 0.17
0.00 0.00 0.00 0.00 0.00 0.00 0.00 0.01 0.02 0.03 0.04 0.08 0.18 0.32 0.48 0.46 0.51 0.55 0.65 0.69 0.64 0.64 0.63 0.59 0.47 0.46 0.51 0.63 0.65 0.64 0.61 0.61 0.68 0.73 0.60 0.60 0.60 0.71 0.88 0.90 1.01 0.78 0.73 0.66 0.57 0.49 0.47 0.39 0.30
0.00 0.00 0.00 0.00 0.00 0.00 0.01 0.01 0.01 0.01 0.02 0.06 0.12 0.16 0.31 0.44 0.53 0.69 0.77 0.92 0.96 1.05 0.94 0.86 0.77 0.70 0.65 0.61 0.68 0.67 0.63 0.70 0.78 0.89 0.84 0.76 0.76 0.91 1.13 1.18 1.18 1.01 1.00 1.06 1.03 0.92 0.75 0.62 0.60
0.00 0.00 0.00 0.00 0.00 0.00 0.00 0.00 0.00 0.01 0.02 0.03 0.08 0.15 0.28 0.51 0.56 0.83 0.98 1.01 1.21 1.20 1.28 1.27 1.14 0.94 0.81 0.72 0.71 0.83 0.82 0.86 0.89 1.04 1.13 1.04 1.02 1.25 1.29 1.47 1.41 1.24 1.21 1.21 1.16 1.20 1.13 0.97 0.88
0.00 0.00 0.00 0.01 0.00 0.00 0.00 0.01 0.01 0.02 0.02 0.03 0.07 0.15 0.26 0.44 0.49 0.63 0.89 0.98 1.35 1.38 1.28 1.30 1.11 0.93 0.96 0.99 1.02 1.05 1.20 1.36 1.33 1.36 1.55 1.60 1.56 1.64 1.60 1.59 1.57 1.49 1.51 1.67 1.66 1.51 1.45 1.40 1.25
0.00 0.00 0.00 0.01 0.00 0.00 0.00 0.02 0.02 0.01 0.01 0.03 0.05 0.16 0.32 0.30 0.35 0.46 0.71 0.85 1.02 1.11 1.25 1.32 1.24 1.06 1.04 1.22 1.47 1.50 1.57 1.88 2.01 1.91 2.13 2.21 2.08 2.07 2.13 2.12 2.15 2.02 2.05 2.01 1.86 1.85 1.72 1.69 1.52
0.00 0.00 0.01 0.01 0.00 0.00 0.00 0.02 0.04 0.04 0.02 0.03 0.05 0.11 0.24 0.25 0.34 0.53 0.63 0.77 0.96 1.06 1.19 1.36 1.46 1.43 1.41 1.47 1.66 1.91 2.05 2.20 2.54 2.57 2.58 2.66 2.76 2.77 2.80 2.75 2.73 2.62 2.46 2.31 2.22 2.15 1.92 1.74 1.52
0.00 0.00 0.00 0.01 0.01 0.00 0.01 0.03 0.05 0.06 0.05 0.06 0.10 0.16 0.23 0.32 0.43 0.64 0.78 0.97 1.17 1.31 1.47 1.53 1.62 1.75 1.90 2.11 2.12 2.25 2.48 2.82 3.12 3.33 3.41 3.42 3.37 3.36 3.18 3.06 3.04 2.87 2.64 2.43 2.32 2.17 2.03 1.77 1.55
0.00 0.00 0.00 0.01 0.01 0.01 0.03 0.07 0.09 0.10 0.11 0.15 0.22 0.22 0.22 0.32 0.45 0.73 0.93 1.22 1.46 1.60 1.71 1.82 1.91 2.21 2.63 2.99 3.39 3.72 3.89 3.90 4.10 4.21 4.20 4.07 3.94 3.79 3.56 3.48 3.31 3.05 2.85 2.61 2.37 2.17 2.11 1.91 1.70
0.00 0.00 0.01 0.01 0.03 0.03 0.05 0.15 0.19 0.18 0.21 0.24 0.27 0.28 0.34 0.45 0.59 0.74 0.96 1.28 1.50 1.65 1.84 1.97 2.24 2.85 3.61 3.93 4.21 4.77 5.05 4.79 4.58 4.46 4.37 4.28 4.27 4.20 3.96 3.83 3.54 3.25 2.94 2.66 2.39 2.16 2.02 1.91 1.76
0.00 0.00 0.01 0.01 0.02 0.06 0.07 0.20 0.31 0.31 0.32 0.29 0.32 0.35 0.42 0.53 0.68 0.82 0.98 1.26 1.56 1.86 1.94 2.11 2.61 3.35 4.00 4.44 4.94 5.44 5.64 5.62 5.49 5.06 4.58 4.13 3.80 3.62 3.50 3.37 3.17 2.94 2.63 2.39 2.17 1.94 1.81 1.83 1.68
0.00 0.00 0.00 0.01 0.02 0.05 0.07 0.20 0.43 0.50 0.55 0.53 0.49 0.45 0.44 0.49 0.69 0.83 0.97 1.18 1.35 1.62 1.99 2.25 2.79 3.47 4.13 4.80 5.42 5.79 5.98 5.93 5.54 4.78 4.03 3.61 3.32 3.03 2.80 2.65 2.51 2.33 2.14 1.96 1.83 1.74 1.61 1.54 1.43
0.00 0.00 0.00 0.01 0.03 0.06 0.07 0.17 0.50 0.79 0.88 0.88 0.74 0.67 0.60 0.50 0.56 0.71 0.89 0.99 1.26 1.52 1.81 2.23 2.54 3.16 3.83 4.39 4.89 5.04 5.17 5.09 4.67 4.21 3.70 3.33 2.92 2.44 2.08 1.87 1.71 1.59 1.47 1.43 1.42 1.36 1.31 1.25 1.20
0.00 0.01 0.05 0.09 0.11 0.12 0.10 0.21 0.59 0.91 0.91 0.82 0.74 0.68 0.65 0.51 0.51 0.73 0.97 0.92 1.14 1.46 1.80 2.18 2.57 2.96 3.46 3.95 4.40 4.62 4.72 4.50 4.04 3.62 3.22 2.78 2.35 1.95 1.61 1.41 1.30 1.24 1.17 1.08 1.08 1.05 1.03 1.01 1.01
0.01 0.02 0.09 0.15 0.18 0.22 0.24 0.42 0.71 0.84 0.80 0.68 0.62 0.57 0.53 0.51 0.54 0.68 0.86 0.93 1.15 1.37 1.66 2.01 2.35 2.67 2.87 3.06 3.37 3.58 3.72 3.55 3.21 2.73 2.29 2.00 1.75 1.51 1.32 1.18 1.08 0.94 0.81 0.77 0.77 0.78 0.78 0.79 0.85
0.01 0.02 0.03 0.06 0.08 0.20 0.45 0.63 0.82 0.80 0.68 0.65 0.61 0.55 0.56 0.56 0.57 0.64 0.77 0.89 1.12 1.40 1.66 1.92 2.06 2.21 2.38 2.48 2.53 2.58 2.68 2.56 2.32 2.04 1.76 1.49 1.24 1.05 0.93 0.82 0.74 0.69 0.62 0.58 0.57 0.59 0.62 0.65 0.71
0.01 0.02 0.03 0.05 0.12 0.25 0.51 0.83 1.05 1.13 1.05 0.87 0.73 0.66 0.60 0.62 0.61 0.63 0.70 0.77 0.88 1.02 1.29 1.51 1.63 1.71 1.77 1.82 1.86 1.87 1.88 1.79 1.69 1.54 1.34 1.12 0.95 0.81 0.69 0.58 0.51 0.50 0.50 0.49 0.45 0.45 0.48 0.51 0.56
0.02 0.03 0.05 0.07 0.08 0.21 0.50 1.02 1.27 1.44 1.41 1.14 0.88 0.77 0.72 0.71 0.65 0.62 0.65 0.65 0.71 0.76 0.92 1.12 1.27 1.30 1.37 1.44 1.40 1.34 1.39 1.34 1.26 1.21 1.13 0.98 0.86 0.75 0.65 0.57 0.53 0.49 0.45 0.42 0.41 0.40 0.43 0.48 0.49
0.03 0.04 0.06 0.14 0.15 0.18 0.48 1.25 1.64 1.74 1.56 1.20 0.99 0.89 0.87 0.79 0.69 0.63 0.59 0.54 0.58 0.63 0.69 0.79 0.90 0.91 0.95 0.99 0.99 1.04 1.07 1.07 1.02 0.93 0.84 0.70 0.61 0.57 0.53 0.47 0.46 0.45 0.41 0.39 0.37 0.35 0.33 0.32 0.34